Temperature
16 16 16 17 17 17 18 20 22 22 22 21 21 21 20 18 18 16 14 14 14 14 14 15 15 15 14 14 14 15 15 15 15 15 15 15 14 14 14 14 14 14 14 14 14 14 14 14 14
16 16 16 17 17 17 19 20 21 21 20 20 20 20 19 17 15 14 14 14 14 14 14 14 14 14 14 14 14 14 14 14 14 14 14 14 14 14 14 14 14 14 14 14 14 14 14 14 14
15 16 17 17 17 18 19 21 20 20 20 20 19 19 18 16 14 14 14 14 14 13 14 14 14 14 14 14 14 14 14 14 14 14 14 14 14 14 14 14 14 14 14 14 14 14 14 14 14
15 16 17 17 17 19 20 20 19 19 19 19 19 17 15 14 14 13 13 13 13 13 13 13 13 14 14 14 14 14 14 14 14 14 14 14 14 14 14 14 14 14 14 14 14 14 14 14 14
15 16 16 16 17 19 20 20 19 19 19 19 19 17 14 13 13 13 13 13 13 13 13 13 13 13 13 14 13 13 13 14 13 13 14 14 14 14 14 14 14 13 13 13 13 13 14 14 14
15 16 16 16 18 19 19 19 19 19 18 18 18 16 13 13 13 13 13 13 13 13 13 13 13 13 13 13 13 13 13 13 13 13 13 13 14 14 14 14 13 13 13 13 13 13 13 13 13
15 15 15 17 18 19 19 19 18 18 17 17 17 16 13 12 13 12 12 12 12 12 12 12 12 13 13 13 13 13 13 13 13 13 13 13 13 13 13 13 13 13 13 13 13 13 13 13 13
15 15 16 16 17 18 18 17 17 16 16 16 16 15 13 12 12 12 12 12 12 12 12 12 12 12 12 12 12 12 13 13 13 13 13 13 13 13 13 13 13 13 13 13 13 13 13 13 13
14 14 14 16 17 17 17 16 16 15 15 14 14 14 13 12 12 11 11 11 11 12 12 12 12 12 12 12 12 12 12 12 13 13 13 13 13 13 13 12 12 12 13 13 13 13 13 13 12
14 13 15 16 16 16 16 15 15 15 14 14 13 12 12 12 11 11 11 11 11 11 11 11 11 11 12 12 12 12 12 12 12 12 12 12 12 12 12 12 12 12 12 12 12 12 12 12 12
14 14 15 15 15 15 15 15 14 14 13 13 12 12 11 11 11 11 11 11 11 11 11 11 11 11 11 11 11 12 12 12 12 12 12 12 12 12 12 11 11 11 11 12 12 12 12 12 12
14 14 14 14 14 14 14 14 13 13 13 13 12 12 11 11 11 11 10 10 10 10 10 10 10 11 11 11 11 11 11 11 11 11 11 11 11 11 11 11 11 11 11 11 11 11 11 11 11
13 14 14 13 13 13 13 13 13 12 12 12 12 11 11 11 10 10 10 10 10 10 10 10 10 10 10 10 11 11 11 11 11 11 11 11 11 11 11 11 11 10 10 11 11 11 11 11 11
13 13 13 13 13 13 12 12 12 12 12 11 11 11 10 10 10 10 10 10 9 9 9 10 10 10 10 10 10 10 10 11 11 11 10 10 10 10 10 10 10 10 10 10 10 10 10 10 10
13 12 12 13 13 13 12 11 12 12 11 11 11 10 10 10 9 9 9 9 9 9 9 9 9 9 9 9 10 10 10 10 10 10 10 10 10 10 10 10 10 10 10 10 10 10 9 10 10
12 12 11 12 13 12 11 10 12 12 11 11 11 10 10 10 9 9 9 9 9 9 9 9 9 9 9 9 9 9 9 9 9 9 9 9 9 9 9 9 9 9 9 9 9 9 9 9 9
11 11 11 12 13 12 11 11 11 11 11 11 11 11 10 9 9 9 8 8 8 8 8 8 8 8 8 9 9 9 8 9 9 9 9 9 9 9 9 9 9 9 9 8 8 8 8 8 8
11 11 12 12 12 12 11 11 11 11 11 11 11 10 10 9 9 8 8 8 8 8 8 8 8 8 8 8 8 8 8 8 8 8 8 8 8 8 8 8 8 8 8 8 8 8 8 8 8
11 11 11 11 11 11 10 10 11 11 11 11 11 10 10 9 9 8 8 7 7 7 8 7 7 8 8 8 8 8 8 8 8 8 8 7 7 7 7 7 7 7 7 7 7 7 7 7 7
10 10 10 10 10 10 9 10 10 10 10 11 11 10 10 9 8 8 7 7 7 7 7 7 7 7 7 7 7 7 7 7 7 7 7 7 7 7 7 7 7 7 6 6 6 6 6 6 6
10 9 9 9 9 10 9 9 10 10 11 10 10 10 9 9 8 7 7 7 6 6 7 7 7 7 7 7 7 7 6 6 6 6 6 6 6 6 6 6 6 6 6 6 6 5 5 5 5
9 9 9 8 8 8 9 7 9 9 9 9 9 9 9 8 7 7 6 6 6 6 6 6 6 6 6 6 6 6 6 6 6 6 6 6 6 6 6 6 6 5 5 5 5 5 5 4 4
8 9 8 8 7 7 8 7 7 9 9 8 8 8 8 7 7 6 6 5 5 5 5 5 5 5 5 5 5 5 5 5 5 5 5 5 5 5 5 5 5 5 5 5 5 4 4 4 4
8 8 7 7 6 5 7 7 7 8 8 8 8 8 7 7 6 6 5 5 5 4 4 4 4 5 5 5 5 5 5 4 4 5 4 4 4 4 4 4 4 4 4 4 4 4 4 4 3
7 6 5 6 5 6 8 7 7 8 8 8 7 7 7 6 6 5 5 4 4 4 4 4 4 4 4 4 4 4 4 4 4 4 4 4 4 4 4 4 4 3 3 3 3 3 3 3 3
6 6 5 6 6 7 7 6 7 8 8 8 7 7 6 6 5 5 4 4 4 3 3 3 3 3 3 3 3 3 3 3 3 3 3 3 3 3 3 3 3 3 2 2 2 2 2 2 2
6 6 6 5 5 5 6 7 7 7 7 6 6 6 6 5 5 4 4 4 3 3 3 3 3 3 3 3 3 3 3 3 2 2 2 2 2 2 2 2 2 2 2 2 2 1 1 1 1
6 6 5 5 5 5 7 7 6 6 6 6 5 5 5 5 4 4 4 3 3 3 2 2 2 2 2 2 2 2 2 2 2 2 2 2 2 2 2 2 1 1 1 1 1 1 1 0 0
5 5 5 5 5 5 5 6 7 6 6 5 5 5 5 4 4 4 3 3 2 2 2 2 2 2 1 1 1 1 1 1 1 1 1 1 1 1 1 1 1 1 0 0 0 0 -0 -0 -0
4 5 4 4 4 4 4 5 7 6 5 5 5 5 4 4 4 3 3 2 2 2 1 1 1 1 1 1 1 1 1 1 1 1 1 1 1 1 0 0 0 0 -0 -0 -0 -0 -1 -1 -1
Wind_Speed
11 11 6 2 3 4 6 5 4 2 3 6 7 5 6 6 5 7 3 5 7 7 10 9 10 10 10 11 11 11 11 11 11 11 11 11 11 11 11 11 10 10 10 10 10 10 10 10 10
9 7 4 3 4 5 6 6 3 2 5 5 5 4 5 7 7 7 4 5 6 8 9 9 10 10 11 11 11 11 11 11 11 11 11 11 11 11 10 10 10 10 10 9 10 10 9 9 9
8 6 3 3 4 6 4 1 4 5 5 3 3 4 4 5 6 4 5 4 6 8 10 11 11 11 11 12 12 11 11 11 10 11 11 11 10 10 10 9 9 9 9 9 9 9 9 8 8
4 3 3 4 8 7 3 3 5 4 3 3 2 4 5 6 4 5 5 4 7 8 12 11 12 12 12 12 12 12 11 11 11 11 10 10 10 10 10 9 9 9 9 9 9 9 8 8 7
3 3 4 6 9 6 1 3 4 1 1 1 2 3 4 5 8 7 5 6 7 8 11 12 12 12 12 12 11 11 11 11 10 10 10 10 10 10 9 9 9 8 8 8 8 8 7 7 7
3 3 5 8 8 6 2 2 1 1 1 1 2 2 4 5 6 5 6 6 8 8 10 11 12 12 12 12 11 11 11 11 10 10 9 9 9 9 9 9 8 8 7 7 7 7 7 6 5
3 3 6 8 7 4 1 3 1 1 1 2 3 2 5 5 5 5 6 6 8 9 9 9 10 10 11 11 11 11 11 11 10 10 9 9 8 8 8 8 7 7 7 6 5 5 5 5 5
3 2 6 7 7 3 2 3 3 4 3 4 4 2 4 4 5 5 7 7 7 7 7 7 8 9 9 10 10 10 10 10 9 9 8 7 7 7 7 6 6 6 6 5 5 4 4 4 4
3 3 5 5 4 0 3 3 3 2 2 3 4 4 6 8 7 6 6 6 6 6 6 6 6 7 8 8 8 8 8 8 8 7 6 5 5 6 6 5 5 4 4 4 3 3 3 3 3
3 4 5 3 4 2 2 2 1 0 1 1 4 7 8 7 6 6 6 5 5 5 5 4 5 6 7 6 6 6 6 6 6 6 5 5 5 6 6 5 4 3 2 2 2 2 2 2 2
3 4 3 3 5 3 2 1 1 2 2 1 2 5 5 6 5 4 4 5 5 5 5 4 5 6 6 5 5 5 5 5 6 6 6 5 5 5 5 4 3 2 2 2 3 2 2 2 2
4 4 4 3 3 2 2 1 1 2 1 2 2 4 4 3 3 3 4 4 5 5 4 4 4 5 5 5 4 4 4 4 5 5 6 5 4 4 4 4 4 3 3 3 3 2 2 2 2
6 5 3 1 2 2 3 3 2 2 1 2 3 3 3 3 2 3 3 4 4 4 4 4 4 4 4 4 4 4 4 4 5 5 6 6 4 3 3 3 4 4 4 3 3 3 2 2 3
2 3 3 3 3 2 3 4 3 3 3 3 3 3 3 2 2 3 4 3 4 4 4 3 4 4 4 3 3 3 4 5 5 5 5 6 5 4 3 3 3 4 5 4 3 3 3 2 2
2 4 5 6 6 3 2 6 6 5 4 4 4 4 3 3 3 3 3 3 4 4 4 3 3 4 4 3 3 4 4 5 4 4 5 6 6 5 4 2 2 3 5 5 4 3 3 2 2
4 5 5 5 5 5 4 6 4 5 5 5 5 4 3 3 3 3 3 3 4 4 4 3 3 3 3 3 3 3 3 4 4 4 4 5 5 5 4 3 2 4 4 4 3 2 2 2 3
6 6 6 5 5 4 6 6 4 4 5 5 4 4 4 3 3 3 3 3 4 4 4 4 4 3 2 3 3 3 3 4 4 4 4 4 4 5 4 3 3 4 3 3 3 2 2 2 2
4 5 6 4 3 2 6 7 5 5 5 5 5 4 4 4 4 3 3 3 4 4 5 4 4 3 2 2 2 2 2 2 3 3 3 3 3 4 4 3 3 4 2 2 2 2 2 2 2
5 5 6 3 1 3 7 9 7 5 6 6 5 5 4 4 4 5 4 4 4 4 4 4 3 2 2 2 1 1 1 0 1 2 1 2 3 3 3 3 2 2 2 2 2 2 2 2 2
6 6 5 2 1 3 6 9 8 6 7 5 5 5 4 4 5 5 5 4 4 4 4 3 3 2 2 1 1 1 1 1 1 1 1 1 1 2 2 2 1 2 2 2 3 2 2 2 2
5 4 4 4 5 6 6 7 7 5 6 5 4 3 3 3 4 5 4 4 4 4 3 2 2 2 1 1 1 1 1 0 0 0 0 1 1 1 2 2 2 2 1 1 2 2 2 3 3
4 2 3 3 3 3 2 4 4 4 5 5 4 3 3 3 3 4 3 3 3 3 3 2 1 1 1 1 1 2 1 1 1 1 1 1 1 1 2 2 2 2 2 2 2 2 2 3 3
1 2 2 3 4 4 5 5 5 4 5 5 4 3 2 2 3 4 4 3 3 3 2 2 1 1 1 1 1 2 2 2 1 1 2 2 2 1 2 2 2 2 2 2 3 3 3 3 4
0 1 3 4 2 5 7 6 4 3 4 4 4 3 3 2 2 3 4 4 3 3 2 2 1 1 1 1 2 2 3 2 2 2 2 2 2 2 2 2 2 2 2 3 3 3 4 4 4
1 1 0 2 3 5 4 4 4 1 2 4 4 3 3 3 2 3 4 3 3 3 2 2 1 1 1 1 1 1 2 3 3 3 3 2 2 2 3 3 2 2 3 3 3 4 5 5 5
4 3 2 3 3 2 1 4 3 3 4 4 5 5 3 2 2 2 3 3 3 2 2 2 1 1 1 1 1 1 2 2 2 3 3 3 3 3 3 3 3 3 4 4 3 4 5 4 4
3 3 1 1 2 3 4 4 2 3 4 4 3 4 3 2 2 2 2 2 3 2 2 2 1 1 1 1 1 2 2 2 2 3 3 3 3 3 3 3 3 4 4 4 4 4 5 4 4
2 1 1 2 2 4 5 4 3 4 4 3 3 2 2 1 1 1 1 1 1 1 1 1 1 1 1 1 2 2 2 2 2 2 3 3 3 3 3 4 4 4 4 4 4 4 5 5 5
4 3 3 3 3 3 3 3 1 4 5 4 3 2 2 1 1 0 0 1 1 1 1 0 0 0 1 1 2 2 2 3 3 3 3 3 3 3 4 4 4 4 4 4 4 5 5 5 5
2 3 4 3 4 3 3 4 1 5 4 3 2 1 1 1 1 1 1 1 1 1 1 1 1 1 1 1 2 2 2 3 3 3 3 3 3 4 4 4 4 5 5 5 5 5 5 6 6
Wind_Direction
297 275 257 261 244 235 243 244 271 342 30 43 31 28 34 35 44 106 118 68 84 99 110 111 105 104 100 95 92 90 87 85 82 78 78 76 73 76 74 73 71 68 69 70 67 68 69 69 71
289 280 266 242 238 238 239 230 242 28 56 52 30 24 44 65 65 95 86 62 83 96 107 109 106 104 101 98 94 91 88 84 81 78 77 75 73 73 73 71 70 68 67 67 67 64 66 67 70
273 267 256 234 233 244 258 25 87 64 58 55 42 28 40 61 70 77 82 83 88 91 98 104 105 102 99 96 93 89 85 82 79 76 75 73 72 71 72 69 69 69 68 69 68 65 64 65 67
266 243 245 246 245 252 278 36 71 66 49 48 82 75 69 46 60 80 93 88 94 90 94 101 102 100 98 94 91 88 84 81 77 74 72 71 69 68 69 68 67 67 67 70 67 64 64 62 63
246 243 228 237 247 253 294 44 61 84 149 100 95 85 76 57 71 85 85 83 90 91 93 98 96 94 92 91 89 88 84 79 75 73 72 70 68 66 66 66 66 64 65 66 65 63 61 62 58
248 246 237 234 235 230 188 76 61 327 339 61 69 93 99 89 74 81 78 81 86 87 89 93 94 91 90 89 88 86 83 79 75 72 69 67 67 67 66 65 63 61 64 65 63 60 56 56 53
257 250 253 260 249 229 140 72 41 344 26 27 358 74 117 94 80 86 86 80 83 82 86 87 90 90 89 87 87 85 82 79 76 71 67 64 65 65 66 63 61 58 58 59 58 55 54 51 45
291 274 252 254 255 245 93 73 44 16 16 19 10 79 117 117 107 96 88 78 78 76 78 82 86 90 91 88 87 86 83 79 76 71 66 65 63 62 61 57 59 57 56 53 52 50 49 45 33
265 245 248 258 265 243 98 85 46 31 48 35 32 51 107 122 123 111 99 87 81 76 69 70 77 81 86 89 87 86 82 77 74 67 60 55 56 59 59 56 62 57 53 49 44 36 41 31 18
216 233 244 295 335 12 52 73 59 94 105 88 78 79 105 120 130 128 126 120 105 93 82 70 69 72 77 85 87 84 80 76 67 60 53 47 48 49 49 53 64 54 42 33 15 357 10 3 356
216 236 267 325 12 20 359 39 340 253 249 222 143 125 123 135 140 136 130 122 117 107 90 79 70 71 74 73 81 73 71 70 62 49 41 47 50 50 45 46 43 25 21 3 345 334 338 348 343
240 259 285 331 1 348 316 274 283 286 305 45 91 133 138 146 147 139 127 118 116 107 101 93 77 71 72 77 79 79 73 67 62 48 38 37 39 40 36 38 28 22 14 359 347 340 324 343 334
236 246 256 306 319 303 305 276 254 237 105 89 115 138 152 154 142 124 117 110 112 109 104 99 93 83 74 69 71 73 71 70 65 53 40 35 41 36 30 27 22 14 8 358 348 343 346 355 333
250 251 234 219 233 251 268 271 249 218 160 145 153 155 150 143 126 117 117 118 119 113 105 96 99 89 83 77 70 71 74 72 68 58 46 34 30 29 30 25 23 16 359 347 347 347 342 344 333
243 247 235 218 216 206 246 259 229 198 181 180 176 166 153 152 144 137 134 137 133 122 113 105 109 90 88 86 79 77 73 77 70 62 55 43 31 20 22 24 30 10 354 352 345 350 358 340 329
226 231 228 203 201 183 209 252 196 172 187 194 187 174 165 150 140 133 129 133 130 130 124 116 105 96 96 90 84 76 71 71 69 62 56 47 33 19 21 23 16 0 357 359 348 345 343 333 328
215 230 229 209 196 195 216 247 199 179 193 205 197 182 175 162 144 130 127 128 131 133 129 125 113 109 102 96 100 89 80 71 67 63 51 41 30 17 21 19 9 356 358 1 340 343 330 313 315
227 234 245 226 179 224 245 254 223 203 201 212 206 188 180 169 159 140 132 131 128 127 126 121 116 114 108 101 104 94 80 68 65 63 46 31 25 16 14 14 4 358 357 346 337 323 321 302 307
297 279 268 274 17 263 255 260 247 220 217 216 208 193 183 168 147 143 147 130 119 112 111 122 125 123 118 120 126 123 127 92 65 61 39 28 19 6 12 3 355 352 337 323 323 314 320 310 315
278 281 286 314 2 285 271 269 258 230 226 222 217 202 183 169 154 147 146 139 132 127 118 120 125 131 126 124 133 159 175 194 189 66 55 13 352 349 352 357 330 328 324 331 328 326 314 308 319
255 270 293 301 313 261 266 276 237 208 209 206 207 192 174 165 154 152 150 140 133 129 129 133 141 143 135 129 133 132 70 26 70 290 263 294 284 317 337 322 317 309 299 290 294 304 297 288 298
254 304 309 306 301 277 226 280 250 194 198 193 189 181 179 140 138 142 147 140 134 126 116 116 124 133 150 154 175 182 191 218 244 248 254 271 256 266 299 299 305 300 288 277 281 289 276 266 271
289 326 287 283 278 285 244 242 264 192 202 192 163 146 132 121 142 147 148 142 128 120 125 132 135 149 155 188 202 208 214 228 235 250 248 258 262 247 262 268 278 277 274 267 271 280 277 264 258
228 306 261 248 257 259 230 216 265 203 194 167 142 132 133 134 129 136 134 124 119 117 123 130 146 172 188 231 226 223 217 225 232 250 254 261 256 256 258 267 270 268 269 264 267 268 273 270 269
173 125 264 222 220 240 203 209 245 216 115 140 144 134 127 133 129 129 133 137 135 132 140 154 166 206 225 250 261 245 238 226 227 238 240 252 257 264 253 271 272 275 275 276 276 267 267 268 268
203 201 189 227 252 284 208 225 239 141 105 100 116 126 125 125 131 136 145 146 148 150 159 171 185 230 242 270 296 279 260 236 235 241 242 247 250 252 263 270 271 274 274 276 274 271 269 266 264
202 214 244 265 279 276 241 218 186 138 125 115 114 122 131 123 118 119 122 134 144 157 171 189 196 236 257 285 291 280 287 264 250 253 254 251 254 261 263 263 264 268 271 271 266 265 269 267 265
272 191 167 194 229 258 251 223 211 172 183 170 153 145 144 116 103 93 104 116 123 141 153 162 174 218 255 282 289 302 294 291 268 259 261 262 263 268 264 265 265 265 268 268 265 268 265 265 267
193 197 215 224 239 233 262 257 161 155 160 163 154 148 141 152 163 157 73 95 104 109 124 137 179 221 268 285 299 302 299 299 284 265 259 261 264 264 260 261 261 264 266 266 266 266 270 271 273
236 215 194 196 242 231 256 267 65 99 108 115 113 96 115 159 183 166 148 106 126 159 176 197 229 260 284 302 301 293 294 295 290 278 273 270 270 268 262 260 260 265 271 270 266 265 267 266 269
Height
1493 1494 1496 1498 1500 1500 1497 1487 1480 1480 1482 1485 1486 1487 1489 1495 1498 1509 1510 1508 1508 1509 1510 1511 1513 1514 1515 1516 1518 1519 1520 1521 1521 1522 1523 1523 1524 1525 1525 1526 1527 1527 1527 1528 1528 1529 1529 1529 1530
1493 1495 1498 1498 1499 1502 1495 1484 1482 1483 1486 1488 1489 1490 1492 1498 1502 1505 1507 1508 1509 1509 1510 1511 1513 1514 1516 1517 1518 1519 1520 1521 1522 1523 1523 1524 1525 1525 1526 1527 1527 1528 1528 1528 1529 1529 1530 1530 1530
1493 1495 1498 1495 1496 1496 1490 1482 1483 1485 1487 1489 1491 1493 1497 1502 1504 1505 1507 1508 1509 1509 1510 1512 1513 1514 1516 1517 1518 1519 1520 1521 1522 1523 1524 1525 1525 1526 1526 1527 1527 1528 1528 1529 1529 1530 1530 1530 1531
1494 1497 1497 1496 1494 1487 1484 1483 1484 1487 1489 1491 1493 1496 1500 1504 1504 1506 1507 1508 1509 1510 1511 1512 1514 1515 1516 1518 1519 1520 1521 1522 1523 1523 1524 1525 1526 1526 1527 1527 1528 1528 1529 1529 1529 1530 1530 1531 1531
1495 1495 1496 1496 1491 1485 1482 1484 1485 1488 1490 1492 1494 1497 1502 1505 1504 1505 1507 1508 1509 1510 1511 1513 1514 1515 1516 1517 1519 1520 1521 1522 1523 1524 1524 1525 1526 1526 1527 1527 1528 1528 1528 1529 1529 1530 1530 1531 1531
1495 1493 1496 1495 1488 1483 1483 1485 1487 1489 1491 1493 1495 1498 1504 1505 1504 1506 1507 1508 1509 1510 1511 1513 1514 1515 1516 1518 1519 1520 1521 1522 1523 1524 1524 1525 1526 1526 1526 1527 1527 1528 1528 1528 1529 1529 1530 1530 1531
1495 1493 1494 1490 1486 1483 1484 1486 1488 1490 1492 1494 1496 1498 1503 1504 1505 1505 1507 1508 1509 1510 1511 1512 1514 1515 1516 1518 1519 1520 1521 1522 1523 1524 1524 1525 1525 1526 1526 1526 1527 1527 1528 1528 1528 1529 1529 1530 1530
1492 1493 1491 1489 1486 1485 1485 1487 1490 1492 1493 1496 1497 1499 1502 1504 1504 1505 1507 1508 1509 1510 1511 1512 1514 1515 1516 1517 1519 1520 1521 1522 1522 1523 1524 1524 1525 1525 1525 1526 1526 1526 1527 1527 1528 1528 1528 1529 1529
1492 1495 1492 1488 1486 1486 1486 1488 1491 1493 1495 1496 1497 1498 1500 1502 1504 1505 1506 1508 1509 1510 1511 1512 1513 1514 1515 1516 1518 1519 1520 1521 1522 1522 1523 1524 1524 1524 1524 1525 1525 1525 1526 1526 1526 1527 1527 1528 1528
1491 1494 1490 1487 1486 1486 1487 1489 1492 1493 1495 1497 1499 1499 1500 1501 1503 1504 1505 1506 1508 1509 1510 1511 1512 1514 1515 1516 1517 1518 1519 1520 1520 1521 1522 1522 1523 1523 1523 1524 1524 1524 1524 1525 1525 1525 1526 1526 1526
1489 1489 1487 1487 1488 1488 1489 1491 1492 1493 1495 1497 1498 1499 1500 1501 1503 1504 1505 1506 1507 1508 1509 1511 1512 1513 1514 1515 1516 1517 1518 1519 1519 1520 1520 1521 1521 1521 1522 1522 1522 1523 1523 1523 1523 1524 1524 1524 1525
1488 1487 1488 1489 1490 1490 1491 1491 1493 1494 1495 1496 1497 1498 1499 1500 1501 1502 1503 1505 1506 1507 1508 1509 1510 1512 1513 1513 1515 1516 1516 1517 1518 1519 1519 1519 1520 1520 1520 1520 1521 1521 1521 1521 1522 1522 1522 1522 1523
1487 1488 1488 1490 1491 1491 1492 1492 1493 1494 1495 1496 1497 1498 1498 1500 1501 1502 1503 1504 1505 1506 1507 1508 1509 1510 1511 1512 1513 1514 1515 1516 1516 1517 1518 1518 1518 1518 1518 1519 1519 1519 1519 1519 1520 1520 1520 1520 1520
1486 1487 1488 1489 1490 1491 1492 1492 1492 1492 1494 1495 1496 1497 1498 1498 1499 1500 1501 1502 1503 1504 1505 1507 1508 1509 1510 1511 1512 1513 1514 1514 1515 1515 1516 1516 1516 1516 1516 1517 1517 1517 1517 1517 1518 1518 1518 1518 1518
1487 1488 1488 1487 1488 1490 1492 1491 1490 1491 1492 1493 1495 1496 1497 1497 1498 1499 1499 1500 1502 1503 1504 1505 1506 1508 1509 1510 1510 1511 1512 1512 1513 1513 1514 1514 1514 1515 1515 1515 1515 1515 1515 1515 1515 1515 1515 1515 1515
1487 1488 1489 1485 1486 1487 1493 1492 1488 1489 1490 1491 1493 1494 1495 1496 1496 1497 1498 1499 1500 1501 1502 1504 1505 1506 1507 1508 1509 1509 1510 1511 1511 1511 1512 1512 1512 1513 1512 1512 1512 1512 1512 1512 1512 1512 1512 1512 1512
1487 1488 1485 1484 1483 1485 1488 1488 1486 1487 1488 1489 1491 1492 1493 1494 1494 1495 1496 1497 1498 1499 1500 1501 1503 1504 1505 1506 1507 1508 1508 1509 1509 1510 1510 1510 1510 1510 1510 1510 1510 1510 1510 1510 1510 1510 1509 1509 1509
1486 1484 1481 1482 1483 1484 1486 1485 1485 1485 1486 1487 1488 1490 1490 1491 1492 1493 1494 1496 1496 1497 1498 1499 1501 1502 1503 1504 1505 1505 1506 1507 1507 1507 1508 1508 1508 1508 1508 1508 1508 1508 1507 1507 1507 1507 1507 1506 1506
1482 1482 1482 1482 1483 1485 1485 1483 1482 1482 1483 1484 1485 1487 1488 1489 1490 1491 1493 1494 1494 1495 1496 1497 1498 1500 1501 1502 1502 1503 1503 1504 1505 1505 1505 1506 1506 1506 1505 1505 1505 1505 1505 1505 1505 1504 1504 1504 1504
1483 1484 1483 1483 1483 1484 1484 1482 1479 1479 1480 1481 1482 1484 1485 1487 1488 1489 1490 1491 1492 1493 1494 1495 1496 1498 1499 1499 1500 1500 1501 1502 1502 1502 1503 1503 1503 1503 1503 1503 1502 1502 1502 1502 1502 1502 1501 1501 1501
1484 1487 1486 1487 1486 1483 1485 1482 1476 1475 1476 1478 1480 1481 1483 1484 1485 1487 1488 1489 1490 1490 1491 1493 1494 1495 1496 1497 1498 1498 1498 1499 1499 1499 1500 1500 1500 1500 1500 1500 1500 1499 1499 1499 1499 1499 1499 1498 1499
1486 1485 1486 1488 1490 1489 1485 1491 1476 1473 1474 1476 1478 1479 1481 1482 1483 1484 1485 1486 1487 1489 1490 1491 1492 1493 1493 1494 1494 1495 1495 1495 1496 1496 1496 1497 1497 1497 1497 1497 1497 1496 1496 1496 1496 1496 1495 1495 1495
1487 1486 1487 1488 1491 1493 1486 1490 1481 1472 1474 1474 1476 1478 1479 1480 1482 1482 1483 1484 1485 1487 1488 1489 1489 1490 1491 1491 1492 1492 1492 1492 1493 1493 1493 1493 1493 1493 1493 1493 1493 1492 1492 1492 1492 1492 1492 1492 1491
1486 1488 1488 1489 1492 1497 1484 1486 1481 1473 1471 1472 1474 1476 1478 1479 1480 1481 1482 1483 1484 1485 1485 1486 1487 1488 1488 1488 1489 1489 1489 1489 1489 1489 1489 1489 1489 1489 1489 1489 1489 1489 1488 1488 1488 1487 1487 1487 1487
1488 1493 1497 1496 1497 1490 1477 1481 1480 1470 1468 1470 1473 1474 1476 1478 1479 1480 1480 1481 1481 1482 1483 1484 1484 1485 1485 1486 1486 1486 1486 1486 1486 1486 1486 1486 1485 1485 1485 1485 1485 1484 1484 1484 1483 1483 1483 1482 1482
1487 1490 1497 1497 1490 1483 1478 1482 1475 1469 1469 1470 1472 1473 1475 1477 1478 1478 1478 1479 1479 1480 1481 1481 1481 1482 1482 1482 1482 1483 1483 1483 1483 1483 1482 1482 1482 1481 1481 1481 1480 1480 1479 1479 1479 1478 1478 1478 1477
1486 1488 1487 1492 1493 1493 1481 1474 1471 1469 1469 1471 1472 1473 1475 1476 1477 1477 1477 1477 1478 1478 1478 1479 1479 1479 1479 1479 1479 1479 1479 1479 1479 1479 1479 1478 1478 1477 1477 1476 1476 1475 1475 1474 1474 1473 1472 1472 1472
1485 1485 1490 1493 1494 1489 1475 1472 1474 1472 1471 1471 1472 1472 1474 1475 1475 1476 1476 1476 1476 1476 1476 1476 1476 1476 1476 1476 1476 1476 1476 1476 1475 1475 1474 1474 1473 1473 1472 1471 1471 1470 1470 1469 1469 1468 1467 1467 1467
1487 1488 1487 1489 1488 1490 1484 1478 1465 1466 1467 1469 1470 1471 1472 1473 1474 1474 1474 1474 1474 1474 1474 1474 1473 1473 1473 1473 1473 1472 1472 1472 1472 1471 1470 1470 1469 1468 1468 1467 1466 1465 1465 1464 1464 1463 1463 1462 1462
1484 1484 1487 1492 1490 1485 1487 1482 1465 1465 1466 1467 1469 1470 1471 1472 1472 1472 1472 1472 1472 1471 1471 1471 1471 1470 1470 1470 1469 1469 1468 1468 1467 1467 1466 1465 1464 1464 1463 1462 1461 1461 1460 1460 1459 1458 1458 1457 1456